| time (UTC) | temp F | wind direction | speed MPH | gust MPH | rain 1hr in | rain 24hr in | rain mn in | humidity % | barometer mb |
| 20260903221735 | 81 | 271 | 0.0 | 0.0 | 0.00 | 0.00 | 2.80 | 87 | 970.1 |
| 20260903221228 | 82 | 271 | 0.0 | 0.0 | 0.00 | 0.00 | 2.80 | 86 | 969.9 |
| 20260903220723 | 82 | 296 | 0.0 | 0.0 | 0.00 | 0.00 | 2.80 | 86 | 970.0 |
| 20260903220217 | 82 | 296 | 0.0 | 0.0 | 0.00 | 0.00 | 2.80 | 85 | 969.8 |
| 20260903215932 | 83 | 296 | 0.0 | 0.0 | 0.00 | 0.00 | 2.80 | 85 | 969.5 |
| 20260903215205 | 83 | 296 | 0.0 | 0.0 | 0.00 | 0.00 | 2.80 | 84 | 969.5 |
| 20260903214659 | 83 | 296 | 0.0 | 0.0 | 0.00 | 0.00 | 2.80 | 83 | 969.1 |
| 20260903214416 | 83 | 296 | 0.0 | 3.0 | 0.00 | 0.00 | 2.80 | 83 | 968.9 |
| 20260903213647 | 83 | 296 | 0.0 | 3.0 | 0.00 | 0.00 | 2.80 | 83 | 969.1 |
| 20260903213140 | 84 | 309 | 0.0 | 3.0 | 0.00 | 0.00 | 2.80 | 83 | 969.2 |
| 20260903212634 | 84 | 318 | 0.0 | 3.0 | 0.00 | 0.00 | 2.80 | 82 | 969.2 |
| 20260903212129 | 84 | 299 | 0.0 | 1.0 | 0.00 | 0.00 | 2.80 | 81 | 969.2 |
| 20260903211623 | 85 | 290 | 0.0 | 1.0 | 0.00 | 0.00 | 2.80 | 81 | 969.1 |
| 20260903211117 | 85 | 285 | 0.0 | 2.0 | 0.00 | 0.00 | 2.80 | 80 | 969.1 |
| 20260903210835 | 85 | 285 | 1.0 | 4.0 | 0.00 | 0.00 | 2.80 | 80 | 969.3 |
| 20260903210105 | 85 | 291 | 2.0 | 7.0 | 0.00 | 0.00 | 2.80 | 78 | 969.3 |
| 20260903205559 | 85 | 295 | 1.0 | 5.0 | 0.00 | 0.00 | 2.80 | 77 | 969.2 |
| 20260903205053 | 85 | 210 | 0.0 | 5.0 | 0.00 | 0.00 | 2.80 | 77 | 969.3 |
| 20260903204547 | 85 | 9 | 0.0 | 2.0 | 0.00 | 0.00 | 2.80 | 78 | 969.2 |
| 20260903204041 | 85 | 270 | 0.0 | 4.0 | 0.00 | 0.00 | 2.80 | 77 | 968.9 |
| 20260903203800 | 85 | 277 | 1.0 | 7.0 | 0.00 | 0.00 | 2.80 | 77 | 968.9 |
| 20260903203259 | 86 | 295 | 1.0 | 7.0 | 0.00 | 0.00 | 2.80 | 76 | 968.9 |
| 20260903202523 | 86 | 300 | 1.0 | 2.0 | 0.00 | 0.00 | 2.80 | 76 | 968.9 |
| 20260903202017 | 86 | 288 | 1.0 | 3.0 | 0.00 | 0.00 | 2.80 | 77 | 969.1 |
| 20260903201510 | 86 | 252 | 1.0 | 5.0 | 0.00 | 0.00 | 2.80 | 74 | 969.2 |
| 20260903201005 | 87 | 290 | 1.0 | 5.0 | 0.00 | 0.00 | 2.80 | 74 | 969.3 |
| 20260903200458 | 87 | 221 | 0.0 | 2.0 | 0.00 | 0.00 | 2.80 | 74 | 969.3 |
| 20260903195953 | 86 | 296 | 1.0 | 5.0 | 0.00 | 0.00 | 2.80 | 74 | 969.3 |
| 20260903195710 | 86 | 233 | 1.0 | 5.0 | 0.00 | 0.00 | 2.80 | 74 | 969.4 |
| 20260903195206 | 86 | 260 | 1.0 | 5.0 | 0.00 | 0.00 | 2.80 | 74 | 969.4 |
| 20260903194435 | 86 | 307 | 2.0 | 7.0 | 0.00 | 0.00 | 2.80 | 73 | 969.4 |
| 20260903194145 | 87 | 288 | 1.0 | 7.0 | 0.00 | 0.00 | 2.80 | 71 | 969.5 |
| 20260903193423 | 87 | 318 | 0.0 | 3.0 | 0.00 | 0.00 | 2.80 | 72 | 969.5 |
| 20260903193136 | 87 | 298 | 0.0 | 3.0 | 0.00 | 0.00 | 2.80 | 73 | 969.6 |
| 20260903192411 | 87 | 268 | 0.0 | 1.0 | 0.00 | 0.00 | 2.80 | 73 | 969.7 |
| 20260903192125 | 87 | 201 | 0.0 | 3.0 | 0.00 | 0.00 | 2.80 | 74 | 969.7 |
| 20260903191622 | 87 | 182 | 0.0 | 3.0 | 0.00 | 0.00 | 2.80 | 73 | 969.8 |
| 20260903191115 | 86 | 298 | 0.0 | 4.0 | 0.00 | 0.00 | 2.80 | 74 | 969.8 |
| 20260903190346 | 85 | 211 | 0.0 | 4.0 | 0.00 | 0.00 | 2.80 | 75 | 970.0 |
| 20260903185841 | 85 | 302 | 0.0 | 0.0 | 0.00 | 0.00 | 2.80 | 75 | 970.1 |
| 20260903185335 | 85 | 217 | 0.0 | 3.0 | 0.00 | 0.00 | 2.80 | 74 | 970.1 |
| 20260903185048 | 85 | 217 | 1.0 | 3.0 | 0.00 | 0.00 | 2.80 | 75 | 970.1 |
| 20260903184322 | 86 | 302 | 1.0 | 4.0 | 0.00 | 0.00 | 2.80 | 73 | 970.2 |
| 20260903183817 | 86 | 255 | 1.0 | 4.0 | 0.00 | 0.00 | 2.80 | 73 | 970.3 |
| 20260903183311 | 86 | 247 | 1.0 | 4.0 | 0.00 | 0.00 | 2.80 | 72 | 970.3 |
| 20260903183023 | 86 | 181 | 0.0 | 4.0 | 0.00 | 0.00 | 2.80 | 75 | 970.3 |
| 20260903182259 | 85 | 170 | 0.0 | 4.0 | 0.00 | 0.00 | 2.80 | 75 | 970.4 |
| 20260903181753 | 85 | 162 | 1.0 | 3.0 | 0.00 | 0.00 | 2.80 | 75 | 970.4 |
| 20260903181247 | 85 | 255 | 1.0 | 4.0 | 0.00 | 0.00 | 2.80 | 75 | 970.5 |
| 20260903181003 | 85 | 278 | 1.0 | 4.0 | 0.00 | 0.00 | 2.80 | 74 | 970.6 |
| 20260903180235 | 85 | 309 | 1.0 | 4.0 | 0.00 | 0.00 | 2.80 | 74 | 970.7 |
| 20260903175729 | 85 | 207 | 0.0 | 4.0 | 0.00 | 0.00 | 2.80 | 75 | 970.8 |
| 20260903175224 | 85 | 306 | 0.0 | 4.0 | 0.00 | 0.00 | 2.80 | 77 | 970.7 |
| 20260903174716 | 84 | 197 | 1.0 | 4.0 | 0.00 | 0.00 | 2.80 | 76 | 970.8 |
| 20260903174210 | 84 | 295 | 1.0 | 6.0 | 0.00 | 0.00 | 2.80 | 73 | 971.0 |
| 20260903173705 | 84 | 325 | 1.0 | 6.0 | 0.00 | 0.00 | 2.80 | 76 | 971.0 |
| 20260903173158 | 84 | 216 | 1.0 | 4.0 | 0.00 | 0.00 | 2.80 | 78 | 971.0 |
| 20260903172653 | 84 | 318 | 0.0 | 3.0 | 0.00 | 0.00 | 2.80 | 78 | 971.1 |
| 20260903172147 | 84 | 335 | 0.0 | 3.0 | 0.00 | 0.00 | 2.80 | 78 | 971.1 |
| 20260903171912 | 84 | 211 | 0.0 | 2.0 | 0.00 | 0.00 | 2.80 | 77 | 971.1 |
| 20260903171141 | 83 | 212 | 0.0 | 3.0 | 0.00 | 0.00 | 2.80 | 77 | 971.1 |
| 20260903170641 | 83 | 212 | 0.0 | 4.0 | 0.00 | 0.00 | 2.80 | 79 | 971.3 |
| 20260903170141 | 82 | 317 | 1.0 | 4.0 | 0.00 | 0.00 | 2.80 | 80 | 971.3 |
| 20260903170118 | 82 | 208 | 1.0 | 5.0 | 0.00 | 0.00 | 2.80 | 82 | 971.4 |
| 20260903165401 | 81 | 291 | 1.0 | 6.0 | 0.00 | 0.00 | 2.80 | 82 | 971.4 |
| 20260903164639 | 81 | 342 | 1.0 | 6.0 | 0.00 | 0.00 | 2.80 | 83 | 971.3 |
| 20260903164137 | 80 | 304 | 0.0 | 5.0 | 0.00 | 0.00 | 2.80 | 82 | 971.5 |
| 20260903163638 | 80 | 223 | 0.0 | 7.0 | 0.00 | 0.00 | 2.80 | 83 | 971.6 |
| 20260903163138 | 80 | 213 | 1.0 | 7.0 | 0.00 | 0.00 | 2.80 | 85 | 971.6 |
| 20260903162636 | 80 | 200 | 1.0 | 4.0 | 0.00 | 0.00 | 2.80 | 85 | 971.7 |
| 20260903162134 | 79 | 224 | 1.0 | 6.0 | 0.00 | 0.00 | 2.80 | 89 | 971.8 |
| 20260903161633 | 78 | 175 | 1.0 | 6.0 | 0.00 | 0.00 | 2.80 | 93 | 971.8 |
| 20260903161136 | 78 | 303 | 1.0 | 6.0 | 0.00 | 0.00 | 2.80 | 93 | 971.9 |
| 20260903160634 | 77 | 267 | 1.0 | 6.0 | 0.00 | 0.00 | 2.80 | 95 | 972.0 |
| 20260903160353 | 77 | 251 | 1.0 | 5.0 | 0.00 | 0.00 | 2.80 | 94 | 972.1 |
| 20260903155632 | 76 | 217 | 1.0 | 8.0 | 0.00 | 0.00 | 2.80 | 95 | 972.2 |
| 20260903155129 | 76 | 311 | 1.0 | 8.0 | 0.00 | 0.00 | 2.80 | 96 | 972.2 |
| 20260903154630 | 75 | 291 | 1.0 | 6.0 | 0.00 | 0.00 | 2.80 | 98 | 972.3 |
| 20260903154129 | 75 | 288 | 0.0 | 3.0 | 0.00 | 0.00 | 2.80 | 99 | 972.4 |
| 20260903153628 | 75 | 262 | 0.0 | 2.0 | 0.00 | 0.00 | 2.80 | 100 | 972.4 |
| 20260903153129 | 75 | 207 | 0.0 | 5.0 | 0.00 | 0.00 | 2.80 | 100 | 972.5 |
| 20260903152628 | 74 | 288 | 0.0 | 5.0 | 0.00 | 0.00 | 2.80 | 100 | 972.5 |
| 20260903152125 | 74 | 162 | 0.0 | 5.0 | 0.00 | 0.00 | 2.80 | 100 | 972.5 |
| 20260903151625 | 73 | 230 | 1.0 | 5.0 | 0.00 | 0.00 | 2.80 | 100 | 972.3 |
| 20260903151346 | 73 | 261 | 1.0 | 5.0 | 0.00 | 0.00 | 2.80 | 100 | 972.3 |
| 20260903150624 | 73 | 294 | 1.0 | 5.0 | 0.00 | 0.00 | 2.80 | 100 | 972.3 |
| 20260903150122 | 72 | 323 | 0.0 | 4.0 | 0.00 | 0.00 | 2.80 | 100 | 972.4 |
| 20260903145844 | 72 | 219 | 0.0 | 4.0 | 0.00 | 0.00 | 2.80 | 100 | 972.3 |
| 20260903145124 | 72 | 209 | 0.0 | 4.0 | 0.00 | 0.00 | 2.80 | 100 | 972.2 |
| 20260903144841 | 71 | 13 | 0.0 | 5.0 | 0.00 | 0.00 | 2.80 | 100 | 972.3 |
| 20260903144123 | 71 | 288 | 1.0 | 5.0 | 0.00 | 0.00 | 2.80 | 100 | 972.3 |
| 20260903143622 | 71 | 273 | 0.0 | 4.0 | 0.00 | 0.00 | 2.80 | 100 | 972.2 |
| 20260903143124 | 71 | 228 | 0.0 | 4.0 | 0.00 | 0.00 | 2.80 | 100 | 972.0 |
| 20260903142623 | 71 | 155 | 0.0 | 2.0 | 0.00 | 0.00 | 2.80 | 100 | 971.9 |
| 20260903142124 | 71 | 150 | 0.0 | 2.0 | 0.00 | 0.00 | 2.80 | 100 | 971.9 |
| 20260903141856 | 71 | 182 | 0.0 | 2.0 | 0.00 | 0.00 | 2.80 | 100 | 971.9 |
| 20260903141126 | 70 | 238 | 0.0 | 3.0 | 0.00 | 0.00 | 2.80 | 100 | 971.9 |
| 20260903140627 | 70 | 269 | 0.0 | 3.0 | 0.00 | 0.00 | 2.80 | 100 | 971.9 |
| 20260903140121 | 70 | 314 | 0.0 | 0.0 | 0.00 | 0.00 | 2.80 | 100 | 971.9 |